Regional Weather Roundup
Issued by NWS

Home | Current Version | Previous Version | Graphics & Text | Print | Product List | Glossary On
Versions: 1 2 3 4 5 6 7 8 9 10 11 12 13 14 15 16 17 18 19 20 21 22 23 24 25 26 27 28 29 30 31 32 33 34 35 36 37 38 39 40 41 42 43 44 45 46 47 48 49 50
000
ASUS44 KMEG 230400
RWRTN
TENNESSEE HOURLY STATE WEATHER ROUNDUP
NATIONAL WEATHER SERVICE MEMPHIS TN
1000 PM CST SUN JAN 22 2017

TNZ002-004-019-021-049-052-054-088>092-230500-
WEST TENNESSEE

CITY           SKY/WX    TMP DP  RH WIND       PRES   REMARKS
MEMPHIS INTL   CLOUDY    55  51  86 N22G33    29.48R
NWS MEMPHIS      N/A     54 N/A N/A MISG        N/A
JACKSON        CLOUDY    56  53  90 N22G28    29.43R
DYERSBURG      CLOUDY    54  48  82 N18G25    29.47R
UNION CITY     MOCLDY    54  54 100 N16       29.45R
$$

TNZ008-025-027-028-033-062-065-066-230500-
NORTH MIDDLE TENNESSEE

CITY           SKY/WX    TMP DP  RH WIND       PRES   REMARKS
NASHVILLE      CLOUDY    58  51  78 N18G25    29.28F
CLARKSVILLE    LGT RAIN  58  49  72 N22       29.35S
SMYRNA         CLOUDY    57  52  83 N20       29.28R
CROSSVILLE     RAIN      52  51  97 E5        29.25R FOG
$$

TNZ061-075-076-078-094-096-097-230500-
SOUTH MIDDLE TENNESSEE

CITY           SKY/WX    TMP DP  RH WIND       PRES   REMARKS
WINCHESTER     CLOUDY    54  54 100 NW7       29.20S
COLUMBIA       CLOUDY    57  57 100 N15       29.27R
$$

TNZ017-018-042-046-047-230500-
NORTHEAST TENNESSEE

CITY           SKY/WX    TMP DP  RH WIND       PRES   REMARKS
TRI CITIES     MOCLDY    56  49  77 NE14G22   29.25F
$$

TNZ012-013-036-069-073-074-230500-
CENTRAL EAST TENNESSEE

CITY           SKY/WX    TMP DP  RH WIND       PRES   REMARKS
KNOXVILLE      TSTM      54  51  90 SW15      29.21R FOG
OAK RIDGE      HVY RAIN  55  54  94 VRB6      29.21S FOG
GATLINBURG     CLOUDY    54  52  94 E13       29.19S
$$

TNZ083-085-099-230500-
SOUTHEAST TENNESSEE

CITY           SKY/WX    TMP DP  RH WIND       PRES   REMARKS
CHATTANOOGA    LGT RAIN  53  53 100 NE21G35   29.10R FOG
$$

SKY/WX REPORTED AS FAIR MEANS FEW OR NO CLOUDS BELOW
12 THOUSAND FEET.




USA.gov is the U.S. government's official web portal to all federal, state and local government web resources and services.